[[{"header":{"parameterUnit":"m.s-1","parameterCategory":1,"la1":30.2991,"la2":30.254,"lo1":-89.0895,"lo2":-89.0444,"dy":0.0017,"dx":0.0017,"nx":28,"ny":28,"refTime":"2023-08-16T21:00:00:Z","depth":0,"parameterNumber":2,"parameterNumberName":"U-component_of_WINDS"},"data":[0,0,0,0,0,0,0,0,0,0,0,0,0,0,0,0,0,0,0,0,0,0,0,0,0,0,0,0,0,0,0,0,0,0,0,0,0,0,0,0,0,0,0,0,0,0,0,0,0,0,0,0,0,0,0,0,0,0,-2.1795,-2.1795,0,-2.1753,-2.1753,-2.1752,-2.1684,-2.1683,-2.1681,-2.168,-2.1638,-2.1638,-2.1638,0,0,0,0,0,0,0,0,0,0,0,0,0,-2.1817,-2.1817,-2.1795,-2.1795,-2.1794,-2.1753,-2.1753,-2.1752,-2.1684,-2.1683,-2.1681,-2.168,-2.1638,-2.1638,-2.1638,0,0,0,0,0,0,0,0,0,0,0,0,0,-2.1795,-2.1817,-2.1795,-2.1755,-2.1751,-2.1754,-2.1753,-2.1752,-2.1684,-2.1682,-2.1681,-2.1679,-2.1638,-2.1638,-2.1638,-2.1676,0,0,-2.1638,-2.1638,0,0,0,0,0,0,0,0,-2.1796,-2.1794,-2.1762,-2.1758,-2.1754,-2.1722,-2.1745,-2.1727,-2.1685,-2.171,-2.168,-2.1678,-2.1667,-2.1665,-2.1661,-2.1674,-2.1672,-2.1638,-2.1638,-2.1638,-2.1638,0,0,0,0,0,0,0,-2.1798,-2.1795,-2.1779,-2.1761,-2.1756,-2.174,-2.1734,-2.1741,-2.17,-2.1708,-2.1702,-2.1698,-2.1665,-2.1661,-2.166,-2.1672,-2.1638,-2.1638,-2.1638,-2.1638,-2.1714,-2.1716,0,0,0,0,0,0,-2.1805,-2.1797,-2.178,-2.1777,-2.177,-2.1741,-2.1735,-2.1734,-2.1699,-2.1692,-2.17,-2.1695,-2.1662,-2.166,-2.1658,-2.1701,-2.1638,-2.1638,-2.1638,-2.1712,-2.1715,-2.1717,0,0,0,0,0,0,-2.1806,-2.1804,-2.1782,-2.1786,-2.1782,-2.1742,-2.1742,-2.1734,-2.1731,-2.1694,-2.1686,-2.1704,-2.166,-2.1658,-2.1672,-2.1699,-2.1638,-2.1638,-2.171,-2.1713,-2.1716,-2.1787,0,0,0,0,0,0,-2.1807,-2.1805,-2.1819,-2.1787,-2.1782,-2.1797,-2.1744,-2.1735,-2.1731,-2.1724,-2.1696,-2.1689,-2.1659,-2.1672,-2.1672,-2.1698,-2.1638,-2.1708,-2.1711,-2.1715,-2.1783,-2.1792,-2.1801,0,0,0,0,0,-2.1808,-2.1841,-2.182,-2.1818,-2.1799,-2.1799,-2.1796,-2.176,-2.1733,-2.1747,-2.1724,-2.169,-2.1695,-2.1675,-2.1674,-2.1699,-2.1706,-2.171,-2.1715,-2.1778,-2.1791,-2.1801,0,0,0,0,0,0,-2.1877,-2.1836,-2.1812,-2.1836,-2.1821,-2.1787,-2.1804,-2.1774,-2.1767,-2.1761,-2.1717,-2.1712,-2.1732,-2.1717,-2.1694,-2.1735,-2.1695,-2.17,-2.1744,-2.1755,-2.1764,-2.1768,-2.1638,0,0,0,0,0,-2.1895,-2.1898,-2.1862,-2.1886,-2.188,-2.1843,-2.1842,-2.1816,-2.1799,-2.1793,-2.177,-2.1755,-2.1753,-2.1753,-2.175,-2.178,-2.1773,-2.1797,-2.1806,-2.1814,-2.1819,-2.1834,-2.1844,-2.1732,-2.1732,-2.1732,0,0,-2.1933,-2.191,-2.1915,-2.19,-2.1885,-2.189,-2.1839,-2.1846,-2.1849,-2.1794,-2.1806,-2.1789,-2.1769,-2.1792,-2.1801,-2.178,-2.1848,-2.182,-2.1826,-2.1826,-2.184,-2.185,-2.186,-2.1735,-2.1734,-2.1734,0,0,-2.2004,-2.1987,-2.2005,-2.1992,-2.1971,-2.1946,-2.1951,-2.1921,-2.1907,-2.1919,-2.1878,-2.1881,-2.1879,-2.1867,-2.186,-2.1927,-2.1896,-2.1927,-2.1975,-2.1991,-2.1999,-2.2007,-2.2032,-2.2041,-2.1931,-2.1931,-2.1931,0,-2.2053,-2.2058,-2.2019,-2.2029,-2.2023,-2.1973,-2.1992,-2.1981,-2.196,-2.1958,-2.1935,-2.1931,-2.1914,-2.1934,-2.195,-2.1946,-2.1951,-2.193,-2.2001,-2.2009,-2.2015,-2.2038,-2.2047,-2.1935,-2.1935,-2.1934,-2.1934,0,-2.212,-2.2125,-2.2142,-2.2123,-2.212,-2.2134,-2.2097,-2.2099,-2.2073,-2.205,-2.2063,-2.2041,-2.2033,-2.2035,-2.201,-2.2051,-2.2039,-2.2009,-2.1969,-2.2031,-2.2052,-2.206,-2.1941,-2.194,-2.1938,-2.1937,0,0,-2.2235,-2.2194,-2.2201,-2.2192,-2.2164,-2.2167,-2.2179,-2.2171,-2.2173,-2.216,-2.2169,-2.2169,-2.2141,-2.2134,-2.2107,-2.212,-2.2175,-2.2089,-2.2088,-2.2107,-2.222,-2.2244,-2.2255,-2.2154,-2.2156,-2.2157,-2.2222,0,-2.2301,-2.2319,-2.2284,-2.2311,-2.2315,-2.2267,-2.2278,-2.2263,-2.2242,-2.2242,-2.2219,-2.222,-2.2183,-2.2179,-2.219,-2.2166,-2.2198,-2.2161,-2.2163,-2.2164,-2.2171,-2.2265,-2.229,-2.2353,-2.223,-2.2231,-2.2232,0,-2.2381,-2.2372,-2.2399,-2.2371,-2.2371,-2.2381,-2.2371,-2.2371,-2.2353,-2.2337,-2.2329,-2.2297,-2.2307,-2.2268,-2.2281,-2.2257,-2.2256,-2.2245,-2.2246,-2.2246,-2.2203,-2.2269,-2.2372,-2.2382,-2.2245,-2.2244,-2.2243,0,-2.2463,-2.2458,-2.2473,-2.2467,-2.2434,-2.2442,-2.2429,-2.2408,-2.2405,-2.2396,-2.2394,-2.2386,-2.2382,-2.2377,-2.2343,-2.2317,-2.2361,-2.2319,-2.2349,-2.235,-2.2362,-2.2362,-2.2467,-2.2359,-2.2359,-2.2359,-2.2358,0,-2.2541,-2.256,-2.251,-2.252,-2.254,-2.2499,-2.252,-2.2501,-2.2484,-2.249,-2.2447,-2.2454,-2.2409,-2.241,-2.2384,-2.24,-2.2398,-2.2386,-2.2379,-2.239,-2.2392,-2.239,-2.2385,-2.2361,-2.2361,-2.236,-2.236,0,-2.2637,-2.2604,-2.2618,-2.2585,-2.2577,-2.2594,-2.2566,-2.2574,-2.255,-2.2558,-2.2557,-2.2521,-2.252,-2.2486,-2.2479,-2.2461,-2.2488,-2.2473,-2.2495,-2.249,-2.2523,-2.2521,-2.2632,-2.2645,-2.2527,-2.2529,-2.253,0,-2.269,-2.2703,-2.2672,-2.2672,-2.2661,-2.2663,-2.2659,-2.262,-2.2618,-2.2598,-2.2609,-2.2605,-2.26,-2.2601,-2.2574,-2.2568,-2.2553,-2.2592,-2.2552,-2.2563,-2.2555,-2.2555,-2.2557,-2.2601,-2.2603,-2.2604,-2.2605,0,-2.2787,-2.277,-2.2767,-2.2759,-2.2756,-2.2747,-2.2736,-2.2739,-2.2696,-2.2696,-2.2695,-2.2691,-2.2683,-2.268,-2.2669,-2.2656,-2.2624,-2.2618,-2.2625,-2.2637,-2.265,-2.2645,-2.2519,-2.2616,-2.2615,-2.2614,-2.2613,-2.2613,-2.2863,-2.2873,-2.2853,-2.2851,-2.2838,-2.2829,-2.2835,-2.2812,-2.2811,-2.2801,-2.2778,-2.2781,-2.2762,-2.2744,-2.2733,-2.2735,-2.2715,-2.2725,-2.2728,-2.2731,-2.2738,-2.2649,-2.2733,-2.2732,-2.2732,-2.2732,-2.2731,0,-2.296,-2.2944,-2.2943,-2.2928,-2.2927,-2.2896,-2.2882,-2.2883,-2.2887,-2.2872,-2.2867,-2.2867,-2.2863,-2.2836,-2.2829,-2.2836,-2.2822,-2.2836,-2.2836,-2.2834,-2.2755,-2.2751,-2.2848,-2.2848,-2.2848,-2.2848,-2.2848,-2.2848,-2.301,-2.3026,-2.3006,-2.3015,-2.2999,-2.3002,-2.2996,-2.2988,-2.2975,-2.2976,-2.2973,-2.2955,-2.2935,-2.2927,-2.2923,-2.2915,-2.2915,-2.2935,-2.2922,-2.285,-2.2839,-2.2828,-2.2823,-2.2935,-2.2935,-2.3,-2.3001,-2.3001]},{"header":{"parameterUnit":"m.s-1","parameterCategory":1,"la1":30.2991,"la2":30.254,"lo1":-89.0895,"lo2":-89.0444,"dy":0.0017,"dx":0.0017,"nx":28,"ny":28,"refTime":"2023-08-16T21:00:00:Z","depth":0,"parameterNumber":3,"parameterNumberName":"V-component_of_WINDS"},"data":[0,0,0,0,0,0,0,0,0,0,0,0,0,0,0,0,0,0,0,0,0,0,0,0,0,0,0,0,0,0,0,0,0,0,0,0,0,0,0,0,0,0,0,0,0,0,0,0,0,0,0,0,0,0,0,0,0,0,-4.2162,-4.2162,0,-4.2188,-4.2188,-4.2189,-4.2133,-4.2132,-4.213,-4.2128,-4.2152,-4.2154,-4.2156,0,0,0,0,0,0,0,0,0,0,0,0,0,-4.2062,-4.2064,-4.2162,-4.2162,-4.2163,-4.2188,-4.2188,-4.2189,-4.2134,-4.2131,-4.2129,-4.2127,-4.2151,-4.2154,-4.2157,0,0,0,0,0,0,0,0,0,0,0,0,0,-4.2098,-4.2065,-4.2162,-4.2138,-4.2136,-4.2188,-4.2188,-4.2189,-4.2134,-4.2131,-4.2129,-4.2126,-4.215,-4.2154,-4.2157,-4.2232,0,0,-4.2167,-4.2169,0,0,0,0,0,0,0,0,-4.2096,-4.2102,-4.2141,-4.214,-4.2138,-4.2155,-4.2162,-4.2203,-4.2135,-4.2135,-4.2128,-4.2125,-4.2155,-4.2158,-4.2168,-4.2233,-4.2234,-4.2168,-4.217,-4.2171,-4.2172,0,0,0,0,0,0,0,-4.2094,-4.2101,-4.2172,-4.2142,-4.214,-4.2125,-4.2128,-4.2169,-4.2159,-4.2135,-4.2131,-4.2135,-4.2153,-4.2165,-4.2168,-4.2234,-4.2168,-4.2171,-4.2173,-4.2174,-4.2362,-4.2365,0,0,0,0,0,0,-4.2095,-4.2099,-4.2171,-4.2173,-4.211,-4.213,-4.2132,-4.2152,-4.2159,-4.2157,-4.2137,-4.2132,-4.2161,-4.2165,-4.2169,-4.2258,-4.2171,-4.2174,-4.2176,-4.2359,-4.2363,-4.2366,0,0,0,0,0,0,-4.2093,-4.2102,-4.217,-4.2135,-4.2143,-4.2134,-4.2157,-4.2154,-4.2166,-4.2161,-4.2158,-4.2151,-4.2159,-4.2164,-4.2217,-4.2258,-4.2176,-4.2179,-4.2356,-4.236,-4.2364,-4.2436,0,0,0,0,0,0,-4.209,-4.2101,-4.213,-4.2136,-4.2145,-4.2219,-4.216,-4.2156,-4.2172,-4.2166,-4.2173,-4.2172,-4.2157,-4.2212,-4.222,-4.2261,-4.2182,-4.2352,-4.2358,-4.2363,-4.243,-4.2442,-4.2453,0,0,0,0,0,-4.2087,-4.2148,-4.2132,-4.2141,-4.2181,-4.2221,-4.2226,-4.2208,-4.2176,-4.2204,-4.2201,-4.2172,-4.2252,-4.2218,-4.2227,-4.2269,-4.2349,-4.2356,-4.2362,-4.2425,-4.244,-4.2452,0,0,0,0,0,0,-4.2146,-4.2149,-4.2131,-4.2196,-4.2209,-4.2212,-4.2247,-4.2225,-4.2246,-4.224,-4.2216,-4.2218,-4.2275,-4.2277,-4.2239,-4.2342,-4.2295,-4.2304,-4.2339,-4.2353,-4.2365,-4.2363,-4.2185,0,0,0,0,0,-4.2167,-4.2201,-4.2201,-4.2259,-4.2266,-4.2256,-4.2273,-4.2258,-4.227,-4.2275,-4.2276,-4.2288,-4.2316,-4.2334,-4.236,-4.2429,-4.243,-4.2463,-4.2474,-4.2484,-4.2492,-4.253,-4.2544,-4.2387,-4.2387,-4.2387,0,0,-4.2211,-4.2216,-4.2239,-4.2271,-4.2279,-4.2314,-4.2261,-4.2299,-4.2325,-4.228,-4.2331,-4.2332,-4.2343,-4.2406,-4.2433,-4.2409,-4.2535,-4.2492,-4.25,-4.2503,-4.2538,-4.2553,-4.2566,-4.2392,-4.2391,-4.239,0,0,-4.2308,-4.2315,-4.2365,-4.2375,-4.2388,-4.2381,-4.2393,-4.24,-4.2399,-4.2449,-4.2417,-4.2446,-4.2495,-4.2505,-4.2516,-4.2618,-4.2592,-4.2627,-4.2687,-4.2724,-4.2736,-4.2747,-4.2784,-4.2798,-4.2635,-4.2635,-4.2635,0,-4.236,-4.2412,-4.2393,-4.2434,-4.245,-4.2412,-4.2462,-4.2472,-4.2493,-4.2504,-4.2477,-4.2538,-4.2543,-4.2607,-4.2632,-4.2643,-4.2655,-4.2626,-4.2736,-4.2747,-4.2757,-4.2792,-4.2806,-4.2639,-4.2639,-4.2638,-4.2638,0,-4.2475,-4.2512,-4.255,-4.2573,-4.2592,-4.2638,-4.2625,-4.2647,-4.2631,-4.2626,-4.2678,-4.2683,-4.2709,-4.2723,-4.2707,-4.2785,-4.277,-4.274,-4.2692,-4.2776,-4.2809,-4.2822,-4.2645,-4.2644,-4.2642,-4.2641,0,0,-4.261,-4.2623,-4.2637,-4.2648,-4.2661,-4.2688,-4.2732,-4.2759,-4.2778,-4.2793,-4.283,-4.2872,-4.2845,-4.2858,-4.2842,-4.2875,-4.2956,-4.2841,-4.2841,-4.2863,-4.3044,-4.3067,-4.3083,-4.2939,-4.2941,-4.2943,-4.3043,0,-4.2707,-4.2784,-4.2768,-4.2843,-4.2877,-4.2842,-4.288,-4.2892,-4.2889,-4.2916,-4.2912,-4.2943,-4.2905,-4.2912,-4.2943,-4.294,-4.2992,-4.2932,-4.2972,-4.2974,-4.2971,-4.31,-4.3124,-4.3218,-4.3055,-4.3058,-4.3059,0,-4.283,-4.2853,-4.2931,-4.294,-4.2953,-4.2988,-4.3012,-4.3038,-4.3051,-4.3046,-4.3062,-4.3041,-4.3083,-4.3035,-4.3093,-4.3053,-4.3068,-4.3069,-4.3072,-4.3076,-4.3022,-4.3107,-4.3247,-4.3262,-4.3079,-4.3077,-4.3076,0,-4.2922,-4.2971,-4.3025,-4.3035,-4.3046,-4.3071,-4.3077,-4.3086,-4.3104,-4.3124,-4.3135,-4.316,-4.3174,-4.3193,-4.3179,-4.3145,-4.324,-4.319,-4.3238,-4.3238,-4.326,-4.3259,-4.3405,-4.3268,-4.3268,-4.3268,-4.3268,0,-4.3033,-4.3082,-4.3067,-4.31,-4.3155,-4.3136,-4.319,-4.3191,-4.3201,-4.3233,-4.3203,-4.3234,-4.3213,-4.3242,-4.3231,-4.3282,-4.3288,-4.3285,-4.3282,-4.3289,-4.3289,-4.3299,-4.3292,-4.3272,-4.3271,-4.327,-4.3269,0,-4.3145,-4.3136,-4.3193,-4.3199,-4.3202,-4.3242,-4.3247,-4.3277,-4.3272,-4.3314,-4.3322,-4.3314,-4.3347,-4.3335,-4.3369,-4.3361,-4.3426,-4.3414,-4.3423,-4.342,-4.3469,-4.3465,-4.3627,-4.3647,-4.3497,-4.3498,-4.3499,0,-4.3216,-4.3254,-4.3265,-4.3285,-4.3293,-4.3326,-4.3344,-4.3327,-4.3346,-4.3364,-4.3393,-4.3423,-4.3446,-4.35,-4.3496,-4.3522,-4.3511,-4.3566,-4.3515,-4.352,-4.3513,-4.3511,-4.3515,-4.3576,-4.3578,-4.358,-4.3581,0,-4.3344,-4.3338,-4.3366,-4.3393,-4.3416,-4.3436,-4.3453,-4.3471,-4.3455,-4.3479,-4.3512,-4.3531,-4.3566,-4.3597,-4.362,-4.3625,-4.3601,-4.3597,-4.3609,-4.3617,-4.3621,-4.362,-4.3452,-4.3593,-4.3592,-4.3591,-4.359,-4.359,-4.3438,-4.3471,-4.3484,-4.3516,-4.3528,-4.3545,-4.3574,-4.3574,-4.3602,-4.3631,-4.3618,-4.3657,-4.3669,-4.3698,-4.3706,-4.3736,-4.3715,-4.3732,-4.3737,-4.3742,-4.3749,-4.3616,-4.374,-4.374,-4.3739,-4.3739,-4.3739,0,-4.3566,-4.3573,-4.3603,-4.3629,-4.3654,-4.363,-4.3648,-4.367,-4.3706,-4.3719,-4.3743,-4.3782,-4.3812,-4.3811,-4.3838,-4.3862,-4.3852,-4.387,-4.3869,-4.387,-4.3766,-4.3753,-4.3878,-4.3878,-4.3878,-4.3878,-4.3878,-4.3878,-4.3635,-4.3689,-4.3685,-4.3744,-4.375,-4.3789,-4.3802,-4.3817,-4.3828,-4.3873,-4.3898,-4.3898,-4.3906,-4.3934,-4.396,-4.3959,-4.3971,-4.3993,-4.3988,-4.3891,-4.3877,-4.3864,-4.3852,-4.3996,-4.3996,-4.409,-4.4091,-4.4092]}]]